Notices

What's New in latest Release from April 7th, 2021:

- Updated Glossary, including Speed of Maximum Gust, and Total Hourly Precipitation

- Updated national and regional climate services offices contacts and prices information

- Addition of station inventory lists for 1981-2010, 1971-2000, and 1961-1990 Normals.

If you haven't already, please take our survey and provide feedback about our website: https://eccc.sondage-survey.ca/f/LanguageSelection.aspx?s=442ca660-fcf1-47c0-95a9-59707d6fd709

Hourly Data Report for December 29, 2020

FORT GOOD HOPE CS
NORTHWEST TERRITORIES
Current Station Operator: ECCC - MSC

66°14'32.044" N
128°38'39.081" W
81.70 m
2201450
71491
ZGH

Download Data

Hourly Data (December 2020)
Hourly Data Report for December 29, 2020
TIME
LST
Temp Definition
°C
Dew Point Definition
°C
Rel Hum Definition
%
Precip. Amount Definition
mm

Wind Dir Definition
10's deg

Wind Spd Definition
km/h
Visibility Definition
km
Stn Press Definition
kPa
Hmdx Definition


Wind Chill Definition


Weather Definition


00:00 -19.5 -21.9 81 0.0 36 2   99.89   -21 LegendNANA
01:00 -19.5 -21.8 81 0.0 1 2   99.96   -21 LegendNANA
02:00 -19.1 -21.4 82 0.0 35 2   100.00   -21 LegendNANA
03:00 -18.7 -21.0 82 0.0 35 2   100.07   -20 LegendNANA
04:00 -18.6 -20.9 82 0.0   0   100.12     LegendNANA
05:00 -19.2 -21.5 82 0.0 0 1   100.14   -20 LegendNANA
06:00 -20.8 -23.3 80 0.0 21 5   100.15   -25 LegendNANA
07:00 -21.0 -23.4 80 0.0 25 4   100.18   -25 LegendNANA
08:00 -22.5 -25.2 79 0.0   0   100.14     LegendNANA
09:00 -23.1 -25.8 79 0.0 18 2   100.13   -25 LegendNANA
10:00 -23.2 -25.9 79 0.0 0 1   100.13   -24 LegendNANA
11:00 -23.0 -25.6 79 0.0 18 2   100.12   -25 LegendNANA
12:00 -23.4 -26.1 78 0.0 0 1   100.11   -24 LegendNANA
13:00 -23.5 -26.2 78 0.0 28 2   100.13   -25 LegendNANA
14:00 -23.7 -26.4 78 0.0   0   100.14     LegendNANA
15:00 -23.0 -25.7 79 0.0 33 2   100.18   -25 LegendNANA
16:00 -23.1 -25.8 79 0.0   0   100.18     LegendNANA
17:00 -21.7 -24.3 80 0.0   0   100.18     LegendNANA
18:00 -21.4 -23.9 80 0.0 0 1   100.20   -22 LegendNANA
19:00 -20.6 -23.1 81 0.1 27 3   100.20   -23 LegendNANA
20:00 -20.2 -22.7 81 0.1 27 1   100.22   -21 LegendNANA
21:00 -19.5 -21.9 81 0.1 27 3   100.23   -22 LegendNANA
22:00 -18.8 -21.2 82 0.1 25 4   100.24   -22 LegendNANA
23:00 -18.9 -21.2 82 0.1   0   100.27     LegendNANA

Notes on Data Quality.

Legend

  • E = Estimated
  • M = Missing
  • NA = Not Available*
  • [empty] = Indicates an unobserved value
Date modified: